Location: Hamburg
(53.5554°N, 9.9941°E)
Time: 16:23:42
(UTC+01:00)

ISS - Pass Details

Date: 13 November 2017
Orbit: 402 x 407 km, 51.6° (Epoch: 22 November)

Event Time Altitude Azimuth Distance (km) Brightness Sun altitude
Exits shadow 05:02:32 30° 136° (SE) 758 -2.1 -23.5°
Drops below altitude 10° 05:04:26 10° 118° (ESE) 1,455 -0.2 -23.2°
Sets 05:06:32 0° 113° (ESE) 2,313 1.1 -22.9°
